DL9TPA-1 Weather Reports


Display with metric or nautical units.
time (UTC)temp
F
wind
direction
speed
MPH
gust
MPH
rain 1hr
in
rain 24hr
in
rain mn
in
humidity
%
barometer
mb
20260507060205 52 0.0 0.0 0.07 0.78 0.65 98 1007.9
20260507055205 51 0.0 0.0 0.08 0.78 0.65 98 1007.9
20260507054203 51 0.0 0.0 0.08 0.78 0.65 98 1007.8
20260507053201 51 0.0 0.0 0.06 0.76 0.63 98 1007.7
20260507052159 51 0.0 0.0 0.04 0.73 0.60 98 1007.6
20260507051157 51 0.0 0.0 0.03 0.72 0.59 98 1007.5
20260507050155 51 0.0 0.0 0.03 0.71 0.58 98 1007.4
20260507045152 51 0.0 0.0 0.04 0.71 0.58 98 1007.3
20260507044150 51 0.0 0.0 0.05 0.70 0.57 98 1007.2
20260507043149 51 0.0 0.0 0.08 0.70 0.57 98 1007.1
20260507042146 51 0.0 0.0 0.10 0.70 0.56 98 1007.0
20260507041144 51 0.0 0.0 0.13 0.69 0.56 98 1007.0
20260507040142 51 0.0 0.0 0.15 0.68 0.55 98 1007.0
20260507035140 51 0.0 0.0 0.15 0.67 0.54 98 1007.0
20260507034139 51 0.0 0.0 0.13 0.65 0.52 98 1007.0
20260507033135 51 0.0 0.0 0.13 0.62 0.49 98 1007.0
20260507032136 51 0.0 0.0 0.13 0.60 0.47 98 1006.8
20260507031131 51 0.0 0.0 0.12 0.56 0.43 98 1006.8
20260507030130 51 0.0 0.0 0.11 0.54 0.41 98 1006.7
20260507025131 51 0.0 0.0 0.13 0.52 0.39 98 1006.7
20260507024127 51 0.0 0.0 0.12 0.52 0.39 98 1006.7
20260507023125 51 0.0 0.0 0.12 0.49 0.36 98 1006.7
20260507022123 51 0.0 0.0 0.12 0.47 0.34 98 1006.7
20260507021121 51 0.0 0.0 0.11 0.45 0.32 98 1006.7
20260507020118 51 0.0 0.0 0.11 0.43 0.30 98 1006.6
20260507015116 52 0.0 0.0 0.10 0.40 0.27 98 1006.6
20260507014114 52 0.0 0.0 0.13 0.40 0.27 98 1006.6
20260507013114 52 0.0 0.0 0.13 0.37 0.24 98 1006.5
20260507012112 52 0.0 0.0 0.16 0.35 0.22 97 1006.4
20260507011109 52 0.0 0.0 0.17 0.34 0.21 97 1006.4
20260507010107 52 0.0 0.0 0.17 0.32 0.19 97 1006.4
20260507005105 52 0.0 0.0 0.14 0.29 0.16 97 1006.5
20260507004105 52 0.0 0.0 0.12 0.27 0.14 97 1006.6
20260507003102 52 0.0 0.0 0.11 0.24 0.11 97 1006.6
20260507002059 52 0.0 0.0 0.06 0.19 0.06 97 1006.5
20260507001057 52 0.0 0.0 0.03 0.16 0.03 97 1006.4
20260507000055 52 0.0 0.0 0.02 0.15 0.02 97 1006.2
20260506235054 52 0.0 0.0 0.02 0.15 0.02 97 1006.1
20260506234050 52 0.0 0.0 0.01 0.14 0.01 97 1006.0
20260506233049 52 0.0 0.0 0.00 0.13 0.00 97 1005.8
20260506232047 51 0.0 0.0 0.00 0.13 0.00 97 1005.7
20260506231044 52 0.0 0.0 0.00 0.13 0.00 97 1005.7
20260506230043 52 0.0 0.0 0.00 0.13 0.00 97 1005.7
20260506225041 52 0.0 0.0 0.00 0.13 0.00 96 1005.7
20260506224040 52 0.0 0.0 0.00 0.13 0.00 96 1005.7
20260506223036 52 0.0 0.0 0.00 0.14 0.00 96 1005.8
20260506222033 52 0.0 0.0 0.00 0.14 0.00 96 1005.8
20260506221032 52 0.0 0.0 0.00 0.16 0.00 96 1005.8
20260506220030 52 0.0 0.0 0.00 0.17 0.00 95 1006.0
20260506215027 52 0.0 0.0 0.12 0.21 0.17 95 1005.9
20260506214025 53 0.0 0.0 0.12 0.28 0.17 94 1005.9
20260506213024 53 0.0 0.0 0.13 0.29 0.17 93 1005.7
20260506212023 54 0.0 0.0 0.13 0.29 0.17 91 1005.5
20260506211022 55 0.0 0.0 0.13 0.29 0.17 89 1005.6
20260506210022 56 0.0 0.0 0.13 0.29 0.17 90 1005.6
20260506205019 58 0.0 0.0 0.01 0.17 0.06 86 1005.8
20260506204017 58 0.0 0.0 0.01 0.17 0.06 86 1005.8
20260506203013 58 0.0 0.0 0.00 0.16 0.04 86 1005.7
20260506202011 57 0.0 0.0 0.00 0.25 0.04 86 1005.4
20260506201007 58 0.0 0.0 0.00 0.28 0.04 86 1005.0
20260506200007 58 0.0 0.0 0.00 0.31 0.04 85 1004.8
20260506195005 58 0.0 0.0 0.00 0.32 0.04 84 1004.7
20260506193501 59 0.0 0.0 0.00 0.32 0.04 83 1004.6
20260506192459 60 0.0 0.0 0.00 0.32 0.04 82 1004.5
20260506191457 60 0.0 0.0 0.00 0.32 0.04 82 1004.2
20260506190455 61 0.0 0.0 0.00 0.32 0.04 80 1004.0
20260506185454 62 0.0 0.0 0.00 0.32 0.04 79 1003.9
20260506184453 64 0.0 0.0 0.00 0.33 0.04 75 1003.9
20260506183451 64 0.0 0.0 0.00 0.35 0.04 75 1003.9
20260506182449 65 0.0 0.0 0.00 0.36 0.04 68 1003.8
20260506181447 65 0.0 0.0 0.00 0.39 0.04 59 1003.5
20260506180443 66 0.0 0.0 0.00 0.40 0.04 58 1003.5
20260506175442 66 0.0 0.0 0.00 0.40 0.04 59 1003.5
20260506174440 66 0.0 0.0 0.00 0.40 0.04 58 1003.5
20260506173438 67 0.0 0.0 0.00 0.40 0.04 58 1003.4
20260506172436 67 0.0 0.0 0.00 0.40 0.04 58 1003.3
20260506171433 67 0.0 0.0 0.00 0.41 0.04 57 1003.3
20260506170430 67 0.0 0.0 0.00 0.41 0.04 57 1003.3
20260506165430 67 0.0 0.0 0.00 0.41 0.04 57 1003.2
20260506164428 67 0.0 0.0 0.00 0.41 0.04 57 1003.3
20260506163427 67 0.0 0.0 0.00 0.41 0.04 56 1003.3
20260506162424 67 0.0 0.0 0.00 0.41 0.04 55 1003.3
20260506161421 67 0.0 0.0 0.00 0.41 0.04 54 1003.5
20260506160419 68 0.0 0.0 0.00 0.41 0.04 53 1003.7
20260506155418 69 0.0 0.0 0.00 0.41 0.04 53 1003.8
20260506154415 70 0.0 0.0 0.00 0.41 0.04 53 1003.9
20260506153416 70 0.0 0.0 0.00 0.41 0.04 53 1003.9
20260506152412 70 0.0 0.0 0.00 0.41 0.04 53 1004.0
20260506151408 70 0.0 0.0 0.00 0.41 0.04 53 1004.0
20260506150409 71 0.0 0.0 0.00 0.41 0.04 52 1004.1
20260506145405 72 0.0 0.0 0.00 0.41 0.04 52 1004.1
20260506144403 72 0.0 0.0 0.00 0.41 0.04 53 1004.1
20260506143400 72 0.0 0.0 0.00 0.41 0.04 53 1004.2
20260506142358 72 0.0 0.0 0.00 0.41 0.04 53 1004.2
20260506141357 72 0.0 0.0 0.00 0.41 0.04 51 1004.3
20260506140355 73 0.0 0.0 0.00 0.41 0.04 51 1004.3
20260506135353 73 0.0 0.0 0.00 0.41 0.04 51 1004.3
20260506134350 73 0.0 0.0 0.00 0.41 0.04 50 1004.4
20260506133348 73 0.0 0.0 0.00 0.41 0.04 51 1004.3
20260506132349 73 0.0 0.0 0.00 0.41 0.04 51 1004.3
20260506131346 74 0.0 0.0 0.00 0.41 0.04 52 1004.4
20260506130345 74 0.0 0.0 0.00 0.41 0.04 53 1004.4
20260506125342 75 0.0 0.0 0.00 0.41 0.04 53 1004.6
20260506124339 75 0.0 0.0 0.00 0.41 0.04 53 1004.6
20260506123346 75 0.0 0.0 0.00 0.41 0.04 53 1004.6
20260506122336 75 0.0 0.0 0.00 0.41 0.04 53 1004.6
20260506121334 75 0.0 0.0 0.00 0.41 0.04 53 1004.6
20260506120331 75 0.0 0.0 0.00 0.41 0.04 53 1004.6
20260506115330 75 0.0 0.0 0.00 0.41 0.04 53 1004.6
20260506114326 75 0.0 0.0 0.00 0.41 0.04 53 1004.6
20260506113325 75 0.0 0.0 0.00 0.41 0.04 53 1004.6
20260506112325 76 0.0 0.0 0.00 0.41 0.04 52 1004.7
20260506111321 66 0.0 0.0 0.00 0.41 0.04 90 1003.9
20260506110319 66 0.0 0.0 0.00 0.41 0.04 90 1003.9
20260506105316 66 0.0 0.0 0.00 0.41 0.04 90 1003.9
20260506104318 66 0.0 0.0 0.00 0.41 0.04 90 1003.9
20260506103314 66 0.0 0.0 0.00 0.41 0.04 90 1003.9
20260506102311 66 0.0 0.0 0.00 0.41 0.04 90 1003.9
20260506101311 66 0.0 0.0 0.00 0.41 0.04 90 1003.9
20260506100309 66 0.0 0.0 0.00 0.41 0.04 90 1003.9
20260506095306 66 0.0 0.0 0.00 0.41 0.04 90 1003.9
20260506094302 66 0.0 0.0 0.00 0.41 0.04 90 1003.9
20260506093301 66 0.0 0.0 0.00 0.41 0.04 90 1003.9
20260506092259 66 0.0 0.0 0.00 0.41 0.04 90 1003.9
20260506091257 66 0.0 0.0 0.00 0.41 0.04 90 1003.9
20260506090255 66 0.0 0.0 0.00 0.41 0.04 90 1003.9
20260506085253 66 0.0 0.0 0.00 0.41 0.04 90 1003.9
20260506084254 66 0.0 0.0 0.00 0.41 0.04 90 1003.9
20260506083251 66 0.0 0.0 0.00 0.41 0.04 90 1003.9
20260506082247 66 0.0 0.0 0.00 0.41 0.04 90 1003.9
20260506081246 66 0.0 0.0 0.00 0.41 0.04 90 1003.9
20260506080243 66 0.0 0.0 0.00 0.41 0.04 90 1003.9
20260506073238 0 0.0 0.0 0.00 0.41 0.04
20260506072235 0 0.0 0.0 0.00 0.41 0.04
20260506071233 0 0.0 0.0 0.00 0.41 0.04
20260506070230 53 0.0 0.0 0.00 0.41 0.04 98 1003.5
20260506062222 53 0.0 0.0 0.00 0.41 0.04 98 1003.5
20260506061223 53 0.0 0.0 0.00 0.41 0.04 98 1003.5